This demonstration page uses our WeatherBlox Daily Observations layout. Learn more.

Left ArrowRight Arrow

39.95238, -75.16362

Hourly Observations for August 31, 2016

Temp ( °F °C ) Dew Point ( °F °C ) Humidity (%) Winds ( mph kmh ) Pressure ( in mb ) Visibility ( mi km ) Precip ( " mm )
12:54 am 00:54 Mostly Cloudy 74 23.3 71 21.7 91 91 ESE 6 9 30.05 1018 10 16 0.00 0.00
1:54 am 01:54 Partly Cloudy 74 23.3 71 21.7 91 91 SE 5 7 30.04 1017 10 16 0.00 0.00
2:03 am 02:03 Partly Cloudy 74 23.3 71 21.7 91 91 SE 5 7 30.03 1017 8 13 0.00 0.00
2:28 am 02:28 Mostly Clear with Mist and Fog 73 22.8 71 21.7 94 94 SSE 5 7 30.03 1017 6 10 0.00 0.00
2:54 am 02:54 Mostly Clear with Mist and Fog 73 22.8 71 21.7 94 94 SSE 6 9 30.04 1017 5 8 0.00 0.00
3:54 am 03:54 Mostly Clear with Mist and Fog 74 23.3 71 21.7 91 91 SSW 5 7 30.03 1017 5 8 0.00 0.00
4:54 am 04:54 Mostly Clear with Mist and Fog 73 22.8 70 21.1 90 90 SSW 7 11 30.02 1017 6 10 0.00 0.00
5:54 am 05:54 Partly Cloudy with Mist and Fog 72 22.2 69 20.6 91 91 SW 3 6 30.02 1017 6 10 0.00 0.00
6:54 am 06:54 Partly Cloudy with Mist and Fog 73 22.8 69 20.6 87 87 WSW 6 9 30.02 1017 5 8 0.00 0.00
7:47 am 07:47 Partly Cloudy 74 23.3 70 21.1 88 88 S 3 6 30.00 1016 7 11 0.00 0.00
7:54 am 07:54 Partly Cloudy 74 23.3 70 21.1 88 88 S 5 7 30.01 1016 7 11 0.00 0.00
8:54 am 08:54 Partly Cloudy 76 24.4 69 20.6 79 79 SSW 3 6 30.01 1016 8 13 0.00 0.00
9:54 am 09:54 Partly Cloudy 79 26.1 70 21.1 74 74 S 5 7 30.00 1016 10 16 0.00 0.00
10:54 am 10:54 Partly Cloudy 83 28.3 66 18.9 57 57 WSW 7 11 29.99 1016 10 16 0.00 0.00
11:54 am 11:54 Partly Cloudy 85 29.4 63 17.2 48 48 SW 8 13 29.98 1015 10 16 0.00 0.00
12:54 pm 12:54 Partly Cloudy 87 30.6 64 17.8 46 46 SSW 7 11 29.96 1015 10 16 0.00 0.00
1:54 pm 13:54 Partly Cloudy 88 31.1 62 16.7 42 42 WSW 9 15 29.93 1014 10 16 0.00 0.00
2:54 pm 14:54 Mostly Cloudy 89 31.7 62 16.7 41 41 WSW 8 13 29.91 1013 10 16 0.00 0.00
3:54 pm 15:54 Partly Cloudy 90 32.2 63 17.2 41 41 S 10 17 29.88 1012 10 16 0.00 0.00
4:54 pm 16:54 Mostly Cloudy 89 31.7 62 16.7 41 41 WNW 6 9 29.87 1012 10 16 0.00 0.00
5:54 pm 17:54 Mostly Cloudy 88 31.1 64 17.8 45 45 WSW 10 17 29.86 1011 10 16 0.00 0.00
6:54 pm 18:54 Mostly Cloudy 87 30.6 64 17.8 46 46 SW 13 20 29.87 1011 10 16 0.00 0.00
7:54 pm 19:54 Mostly Cloudy 85 29.4 67 19.4 55 55 SSW 10 17 29.88 1012 10 16 0.00 0.00
8:54 pm 20:54 Mostly Cloudy with Light Rain 80 26.7 67 19.4 64 64 WSW 13 20 29.91 1013 10 16 0.00 0.03
9:54 pm 21:54 Cloudy 76 24.4 69 20.6 79 79 S 10 17 29.90 1013 10 16 0.00 0.03
10:54 pm 22:54 Cloudy 75 23.9 69 20.6 82 82 S 5 7 29.89 1012 10 16 0.00 0.00
11:54 pm 23:54 Cloudy 77 25 69 20.6 77 77 SW 8 13 29.89 1012 10 16 0.00 0.00

Powered by AerisWeather